Date String (YYYY-MM-DD hh:mm:ss) UTC,Instrument flags,Ambient pressure (hPa),Sample flow (lpm),Bypass flow (lpm),Sample temperature (°C),Ambient temperature (°C),ASC tube jacket temperature (°C),LED temperature (°C),Box temperature (°C),Sample RH (%),Span deviation,Mass concentration (μg/m³),Mass concentration (μg/m³),Mass concentration (μg/m³)
DateTimeUTC,F1_M11,P_M11,Q1_M11,Q2_M11,T1_M11,T2_M11,T3_M11,T4_M11,T5_M11,U1_M11,ZSPAN_M11,X0_M11,X2_M11,X1_M11
2022-03-08 12:00:00,,0823.6,5.00,0.00,22.5,22.2,00.0,31.5,24.3,07.2,0000.6,0010.06,0006.87,0006.50
2022-03-08 12:01:00,,0823.7,4.99,0.00,22.5,22.0,00.0,31.5,24.3,07.3,0000.2,0010.11,0006.92,0006.54
2022-03-08 12:02:00,,0823.6,5.00,0.00,22.5,21.9,00.0,31.4,24.2,07.2,0000.1,0010.59,0006.95,0006.57
2022-03-08 12:03:00,,0823.7,4.99,0.00,22.4,21.8,00.0,31.4,24.2,07.2,0000.3,0010.53,0006.96,0006.59
2022-03-08 12:04:00,,0823.7,5.02,0.00,22.4,21.7,00.0,31.4,24.1,07.2,-000.3,0010.13,0006.96,0006.59
2022-03-08 12:05:00,,0823.7,5.01,0.00,22.4,21.6,00.0,31.4,24.1,07.3,-000.6,0010.10,0006.96,0006.60
2022-03-08 12:06:00,,0823.6,5.00,0.00,22.3,21.6,00.0,31.4,24.0,07.3,-000.6,0010.30,0006.99,0006.64
2022-03-08 12:07:00,,0823.7,4.99,0.00,22.3,21.5,00.0,31.4,24.0,07.3,-000.8,0010.34,0007.01,0006.64
2022-03-08 12:08:00,,0823.7,4.98,0.00,22.3,21.5,00.0,31.4,24.0,07.2,-000.9,0010.33,0006.98,0006.60
2022-03-08 12:09:00,,0823.7,5.00,0.00,22.3,21.8,00.0,31.4,24.0,07.1,-001.0,0010.20,0006.92,0006.56
2022-03-08 12:10:00,,0823.6,5.01,0.00,22.4,22.6,00.0,31.4,24.3,07.1,-001.1,0010.07,0006.88,0006.53
2022-03-08 12:11:00,,0823.6,5.00,0.00,22.5,23.1,00.0,31.4,24.5,06.9,-001.2,0010.00,0006.79,0006.46
2022-03-08 12:12:00,,0823.7,4.99,0.00,22.6,23.0,00.0,31.5,24.5,06.9,-000.7,0009.90,0006.70,0006.38
2022-03-08 12:13:00,,0823.6,5.01,0.00,22.6,22.7,00.0,31.5,24.5,06.8,-000.6,0009.39,0006.62,0006.31
2022-03-08 12:14:00,,0823.6,5.00,0.00,22.6,22.5,00.0,31.5,24.4,06.9,-000.5,0009.35,0006.60,0006.28
2022-03-08 12:15:00,,0823.7,4.99,0.00,22.6,22.3,00.0,31.5,24.4,06.9,-000.5,0009.30,0006.56,0006.25
2022-03-08 12:16:00,,0823.7,5.00,0.00,22.6,22.2,00.0,31.5,24.3,06.8,-000.2,0009.14,0006.43,0006.13
2022-03-08 12:17:00,,0823.7,5.00,0.00,22.5,22.0,00.0,31.5,24.3,06.6,0000.3,0008.91,0006.26,0005.97
2022-03-08 12:18:00,,0823.6,4.99,0.00,22.5,21.9,00.0,31.5,24.3,06.6,0000.4,0008.74,0006.12,0005.83
2022-03-08 12:19:00,,0823.7,5.01,0.00,22.5,21.8,00.0,31.5,24.2,06.8,0000.6,0008.69,0006.04,0005.76
2022-03-08 12:20:00,,0823.7,5.00,0.00,22.4,21.7,00.0,31.5,24.2,06.9,0000.7,0008.63,0006.02,0005.75
2022-03-08 12:21:00,,0823.6,5.01,0.00,22.4,21.7,00.0,31.4,24.1,07.1,0000.8,0008.68,0006.05,0005.79
2022-03-08 12:22:00,,0823.7,5.00,0.00,22.4,21.6,00.0,31.4,24.1,07.3,0001.8,0009.10,0006.14,0005.88
2022-03-08 12:23:00,,0823.7,5.00,0.00,22.3,21.5,00.0,31.4,24.0,07.1,0001.9,0009.13,0006.17,0005.92
2022-03-08 12:24:00,,0823.7,5.00,0.00,22.3,21.6,00.0,31.4,24.0,07.0,0001.8,0009.14,0006.15,0005.88
2022-03-08 12:25:00,,0823.6,5.00,0.00,22.4,22.3,00.0,31.4,24.2,07.1,0001.3,0009.13,0006.19,0005.91
2022-03-08 12:26:00,,0823.7,5.02,0.00,22.5,22.9,00.0,31.5,24.4,07.2,0001.2,0009.27,0006.27,0005.99
2022-03-08 12:27:00,,0823.7,4.99,0.00,22.7,23.2,00.0,31.5,24.6,07.0,0001.3,0009.40,0006.33,0006.03
2022-03-08 12:28:00,,0823.7,5.00,0.00,22.7,22.9,00.0,31.5,24.6,07.0,0001.1,0009.46,0006.45,0006.15
2022-03-08 12:29:00,,0823.7,5.00,0.00,22.7,22.7,00.0,31.5,24.5,07.0,0000.9,0009.92,0006.58,0006.27
2022-03-08 12:30:00,,0823.7,4.99,0.00,22.6,22.5,00.0,31.5,24.4,07.1,0001.0,0010.40,0006.68,0006.37
2022-03-08 12:31:00,,0823.7,5.00,0.00,22.6,22.3,00.0,31.5,24.4,07.1,0001.0,0010.54,0006.72,0006.40
2022-03-08 12:32:00,,0823.7,5.00,0.00,22.6,22.1,00.0,31.5,24.3,06.6,0001.0,0010.50,0006.50,0006.20
2022-03-08 12:33:00,,0823.7,5.01,0.00,22.6,22.0,00.0,31.5,24.3,06.0,0000.9,0009.82,0006.19,0005.90
2022-03-08 12:34:00,,0823.7,5.00,0.00,22.5,21.9,00.0,31.5,24.2,06.2,0000.8,0009.71,0006.06,0005.76
2022-03-08 12:35:00,,0823.7,5.00,0.00,22.5,21.8,00.0,31.5,24.2,06.7,0000.5,0009.77,0006.13,0005.84
2022-03-08 12:36:00,,0823.7,4.99,0.00,22.5,21.7,00.0,31.5,24.2,06.5,0001.1,0009.70,0006.01,0005.73
2022-03-08 12:37:00,,0823.7,5.00,0.00,22.4,21.7,00.0,31.5,24.1,06.0,0001.7,0009.34,0005.73,0005.46
2022-03-08 12:38:00,,0823.7,5.01,0.00,22.4,21.6,00.0,31.5,24.1,06.1,0001.7,0009.17,0005.61,0005.34
2022-03-08 12:39:00,,0823.7,5.00,0.00,22.4,21.6,00.0,31.5,24.1,06.4,0001.7,0009.11,0005.53,0005.25
2022-03-08 12:40:00,,0823.7,5.00,0.00,22.4,22.0,00.0,31.5,24.1,06.2,0000.5,0008.84,0005.34,0005.08
2022-03-08 12:41:00,,0823.7,4.98,0.00,22.5,22.6,00.0,31.5,24.4,06.5,0000.0,0008.21,0005.24,0004.99
2022-03-08 12:42:00,,0823.6,5.01,0.00,22.7,23.2,00.0,31.5,24.6,06.8,0000.3,0008.16,0005.25,0005.01
2022-03-08 12:43:00,,0823.6,4.99,0.00,22.7,23.0,00.0,31.5,24.6,06.7,0002.1,0008.00,0005.36,0005.11
2022-03-08 12:44:00,,0823.6,5.01,0.00,22.7,22.8,00.0,31.6,24.5,06.5,0001.9,0008.15,0005.52,0005.25
2022-03-08 12:45:00,,0823.6,5.00,0.00,22.7,22.6,00.0,31.6,24.5,06.4,0001.6,0008.21,0005.62,0005.36
2022-03-08 12:46:00,,0823.6,5.00,0.00,22.7,22.4,00.0,31.6,24.4,06.3,0002.0,0008.06,0005.49,0005.24
2022-03-08 12:47:00,,0823.6,5.00,0.00,22.6,22.2,00.0,31.6,24.4,06.3,0002.0,0008.00,0005.47,0005.22
2022-03-08 12:48:00,,0823.6,4.99,0.00,22.6,22.1,00.0,31.6,24.3,06.4,0001.8,0008.05,0005.58,0005.33
2022-03-08 12:49:00,,0823.6,5.01,0.00,22.6,21.9,00.0,31.5,24.2,06.7,0001.6,0008.23,0005.76,0005.52
2022-03-08 12:50:00,,0823.6,5.00,0.00,22.5,21.8,00.0,31.5,24.2,06.6,0001.3,0008.37,0005.84,0005.58
2022-03-08 12:51:00,,0823.6,5.00,0.00,22.4,21.7,00.0,31.5,24.1,06.5,0001.5,0008.27,0005.89,0005.64
2022-03-08 12:52:00,,0823.6,4.99,0.00,22.4,21.6,00.0,31.5,24.1,06.4,0001.3,0008.24,0005.88,0005.63
2022-03-08 12:53:00,,0823.6,4.99,0.00,22.4,21.5,00.0,31.5,24.1,06.5,0001.2,0008.15,0005.75,0005.52
2022-03-08 12:54:00,,0823.6,5.00,0.00,22.3,21.5,00.0,31.5,24.0,06.6,0000.8,0008.26,0005.69,0005.45
2022-03-08 12:55:00,,0823.6,4.99,0.00,22.4,22.0,00.0,31.5,24.1,06.5,0000.8,0008.21,0005.65,0005.43
2022-03-08 12:56:00,,0823.6,5.01,0.00,22.5,22.7,00.0,31.5,24.4,06.4,0001.1,0008.22,0005.65,0005.43
2022-03-08 12:57:00,,0823.6,4.99,0.00,22.6,23.2,00.0,31.5,24.5,06.6,0000.7,0008.40,0005.82,0005.58
2022-03-08 12:58:00,,0823.6,5.00,0.00,22.7,23.0,00.0,31.6,24.5,06.7,0001.0,0008.54,0005.94,0005.70
2022-03-08 12:59:00,,0823.5,4.99,0.00,22.7,22.7,00.0,31.6,24.5,06.7,0001.2,0008.66,0006.04,0005.79
